Portada
METAR-TAF:

METAR-TAF

Aeropuertos :

McKinley Park, Alaska, Estados Unidos

latitud: 63-44N, longitud: 148-55W, altitud: 524 m

Observación

El informe se hizo hace 45 minutos, a las 21:56 UTC
Viento 3 kt con dirección variable
Temperatura 17°C
Humedad 23%
Presión 1013 hPa
Visibilidad: 16.1 km
Cielo despejado

METAR: PAIN 222156Z AUTO VRB03KT 10SM CLR 17/M04 A2991 RMK AO2 SLP145 T01671039

Hora: 14:41 (22:41 UTC)


TAF: falta

Observaciones y pronósticos meteorológicos de más de 4000 aeropuertos (mensajes METAR y TAF).

Los puntos amarillos y rojos representan las estaciones disponibles.

Ponga el ratón en el punto deseado para ver el nombre de la estación.

Haga clic para ver las observaciones y los pronósticos meteorológicos.

Para cambiar el mapa : haga clic en los botones verdes con una cruz de color negro para hacer un zoom, en el botón verde con un guión para alejar o en las flechas verdes para mapas adyacentes.


METAR-TAF: